THOR ABLESTAR DEB, 152

Orbit data source: Space-Track

THOR ABLESTAR DEB, 152 is space debris in LEO originally from a launch on Thu, 29 Jun 1961 UTC launched from the Air Force Eastern Test Range (AFETR). Debris objects in space refer to the collection of defunct objects orbiting the Earth. Examples of debris include non-operational satellites, rocket bodies, and fragments generated from explosions, collisions, or faulty payload assembly.

Loading next visibility...
Identifier
152, 1961-015AN
Orbit
LEO
Country
Flag of USUS
Related business
Manufacturer
Unknown
Mission
Spacecraft
Bus & Motor
Unknown
Mass
Unknown
Launch date (UTC)
1961-06-29 (64 years ago)
Launch vehicle
Unknown
Launch site
Air Force Eastern Test Range (AFETR)
Object type
Payload
Rocket body
Debris
Shape & HBR
Unknown
Radar Cross Section
Medium (>0.1 m² and <1 m²)

Expand to show TLE details & history
Last TLE update: 15 hours ago

TLE from 15 hours ago
0 THOR ABLESTAR DEB
1 00152U 61015AN  25258.11402708 -.00000078  00000-0  21404-5 0  9998
2 00152  66.5939 300.6186 0147046  20.7924 339.9059 14.11216085287260
Epoch: 2025-09-15T02:44Z
TLE epoch observation values (Epoch: 2025-09-15T02:44:11.939Z)
Latitude
-0.00011°
Longitude
-94.75452°
Altitude
757.582 km
Speed
7.527 km/s
True Right ascension
20h 02m 28s
True Declination
0° 00' 00"
Sunlit
Object was in full shadow at epoch
Visualization orbit readout
Latitude
Unknown
Longitude
Unknown
Altitude
Unknown
Speed
Unknown
Apparent Right ascension
Unknown
Apparent Declination
Unknown
Sunlit
N/A
Visualization observer readout
Local Sidereal Time
10:13:18
Azimuth
Unknown
Elevation
Unknown
Doppler factor
Unknown
Orbital elements
Apogee altitude
959.954 km
Perigee altitude
747.274 km
Semi-major axis
7,231.751 km
Eccentricity
0.0147
Inclination
66.5939°
RAAN
300.6186°
Arg. of periapsis
20.7924°
True anomaly
339.31684°
Mean anomaly
339.9059°
Eccentric anomaly
339.61239°
Mean motion
3.52921 °/min
Orbital period
102.01 mins
BSTAR
0.0000021404
Loading maneuver chart data...
Computing Atmospheric mass density...

Documentation

Showing up to 5 results
|